{"data":{"norad_id":58125,"epoch":"2026-05-25T04:28:56.045856Z","epoch_age_seconds":59108,"freshness":"FRESH","line1":"1 58125U 23162H   26145.18675979  .00002247  00000+0  91146-4 0  9994","line2":"2 58125  43.0025  57.3006 0001112 256.8746 103.1982 15.27580299144046","mean_motion":15.27580299,"eccentricity":0.0001112,"inclination_deg":43.0025,"raan_deg":57.3006,"arg_perigee_deg":256.8746,"mean_anomaly_deg":103.1982,"bstar":9.1146e-5,"rev_number":14404,"period_min":94.266730262407,"perigee_km":482.28523693191,"apogee_km":483.81116452056,"semimajor_km":6861.1852007262,"source":"CELESTRAK","updated_at":"2026-05-25T13:38:18.532042Z"}}